Regional Weather Roundup
Issued by NWS

Home | Current Version | Previous Version | Graphics & Text | Print | Product List | Glossary On
Versions: 1 2 3 4 5 6 7 8 9 10 11 12 13 14 15 16 17 18 19 20 21 22 23 24 25 26 27 28 29 30 31 32 33 34 35 36 37 38 39 40 41 42 43 44 45 46 47 48 49 50
000
ASUS43 KLMK 301710
RWRKY
KENTUCKY REGIONAL WEATHER ROUNDUP
NATIONAL WEATHER SERVICE LOUISVILLE KY
100 PM EDT THU MAR 30 2017

NOTE "FAIR" INDICATES FEW OR NO CLOUDS BELOW 12,000 FEET
WITH NO SIGNIFICANT WEATHER AND/OR OBSTRUCTIONS TO VISIBILITY.

KYZ001>023-026-027-061>063-070>075-301800-
WESTERN AND SOUTH CENTRAL KENTUCKY

CITY           SKY/WX    TMP DP  RH WIND       PRES   REMARKS
PADUCAH        MOSUNNY   74  57  55 S12G28    29.60F
HENDERSON      CLOUDY    70  54  56 SW17G26   29.61F
OWENSBORO      NOT AVBL
HOPKINSVILLE   CLOUDY    75  50  41 S17G40    29.67F
BOWLING GREEN  CLOUDY    75  58  55 S17G26    29.71F
GLASGOW        CLOUDY    77  56  48 S14G22    29.72F
$$

KYZ024-025-028>034-038-045-046-053-301800-
NORTH CENTRAL KENTUCKY

CITY           SKY/WX    TMP DP  RH WIND       PRES   REMARKS
LOUISVILLE/SDF CLOUDY    79  55  43 SW17G28   29.67F
LOUISVILLE/LOU MOSUNNY   76  57  51 S17G26    29.69F
FORT KNOX      PTSUNNY   74  58  57 S17G25    29.68F
$$

KYZ035>037-039>044-047>052-055>060-089>105-301800-
NORTHEAST KENTUCKY

CITY           SKY/WX    TMP DP  RH WIND       PRES   REMARKS
LEXINGTON      PTSUNNY   74  52  46 S20       29.75F
COVINGTON      CLOUDY    73  56  54 S17G25    29.70F
FRANKFORT      MOSUNNY   76  48  37 S21G31    29.72F
$$

KYZ054-064>069-076>088-106>120-301800-
SOUTHEAST KENTUCKY

CITY           SKY/WX    TMP DP  RH WIND       PRES   REMARKS
JACKSON        CLOUDY    76  53  44 S12G28    29.80F
LONDON         CLOUDY    75  51  43 S20G30    29.77F
SOMERSET       PTSUNNY   75  46  35 SW15G30   29.79R
MIDDLESBORO    MOSUNNY   75  53  46 S15G23    29.85F
MONTICELLO     CLOUDY    78  54  43 S15G31    29.78R
$$





USA.gov is the U.S. government's official web portal to all federal, state and local government web resources and services.